When you browse on this site, cookies collect data to enhance your experience and personalize the content and advertising you see.
Visit our Privacy Policy to learn more. By continuing to use the site, you agree to this use of cookies and data.
  • In Lithuania
  • List of Countries
  • For 7 days
  • Water Temperature
  • Weather Map
  • Weather Widgets
  • user-avatar
    Login

    Hourly Weather La Condamine

    Today, 1 June, Monday

    Time Temperature Precipitation Wind Pressure Humidity
    00:00 +17°C° 0 mm 2 mps 746 mmHg 79%
    01:00 +17°C° 0 mm 2 mps 746 mmHg 79%
    02:00 +17°C° 0 mm 2 mps 746 mmHg 79%
    03:00 +17°C° 0 mm 3 mps 746 mmHg 79%
    04:00 +18°C° 0 mm 2 mps 746 mmHg 76%
    05:00 +19°C° 0 mm 2 mps 747 mmHg 74%
    06:00 +20°C° 0 mm 2 mps 747 mmHg 71%
    07:00 +21°C° 0 mm 2 mps 747 mmHg 68%
    08:00 +23°C° 0 mm 2 mps 747 mmHg 64%
    09:00 +24°C° 0 mm 3 mps 747 mmHg 60%
    10:00 +24°C° 0.1 mm 2 mps 747 mmHg 60%
    11:00 +24°C° 0.1 mm 2 mps 747 mmHg 60%
    12:00 +25°C° 0.1 mm 1 mps 747 mmHg 60%
    13:00 +24°C° 0.1 mm 2 mps 747 mmHg 60%
    14:00 +24°C° 0.1 mm 2 mps 747 mmHg 60%
    15:00 +24°C° 0.1 mm 2 mps 747 mmHg 59%
    16:00 +24°C° 0 mm 2 mps 746 mmHg 62%
    17:00 +23°C° 0 mm 2 mps 746 mmHg 66%
    18:00 +21°C° 0 mm 2 mps 746 mmHg 69%
    19:00 +21°C° 0 mm 2 mps 746 mmHg 71%
    20:00 +20°C° 0 mm 2 mps 747 mmHg 73%
    21:00 +20°C° 0 mm 1 mps 747 mmHg 76%
    22:00 +20°C° 0 mm 1 mps 747 mmHg 76%
    23:00 +20°C° 0 mm 1 mps 747 mmHg 76%

    Tomorrow, 2 June, Tuesday

    Time Temperature Precipitation Wind Pressure Humidity
    00:00 +19°C° 0 mm 1 mps 746 mmHg 76%
    01:00 +19°C° 0 mm 1 mps 746 mmHg 76%
    02:00 +19°C° 0 mm 1 mps 746 mmHg 76%
    03:00 +18°C° 0 mm 2 mps 746 mmHg 76%
    04:00 +19°C° 0.1 mm 1 mps 746 mmHg 76%
    05:00 +20°C° 0.1 mm 1 mps 746 mmHg 76%
    06:00 +21°C° 0.1 mm 1 mps 746 mmHg 75%
    07:00 +22°C° 0.1 mm 1 mps 746 mmHg 73%
    08:00 +23°C° 0.1 mm 1 mps 746 mmHg 71%
    09:00 +23°C° 0.1 mm 2 mps 746 mmHg 70%
    10:00 +24°C° 0.3 mm 2 mps 745 mmHg 69%
    11:00 +24°C° 0.3 mm 3 mps 745 mmHg 68%
    12:00 +25°C° 0.3 mm 3 mps 745 mmHg 67%
    13:00 +25°C° 0.2 mm 4 mps 744 mmHg 67%
    14:00 +25°C° 0.2 mm 4 mps 744 mmHg 67%
    15:00 +25°C° 0.2 mm 5 mps 744 mmHg 68%
    16:00 +23°C° 0 mm 4 mps 743 mmHg 70%
    17:00 +22°C° 0 mm 4 mps 743 mmHg 73%
    18:00 +22°C° 0 mm 4 mps 743 mmHg 76%
    19:00 +21°C° 0 mm 4 mps 743 mmHg 79%
    20:00 +20°C° 0 mm 3 mps 743 mmHg 81%
    21:00 +19°C° 0 mm 3 mps 743 mmHg 84%
    22:00 +18°C° 0 mm 3 mps 743 mmHg 82%
    23:00 +18°C° 0 mm 2 mps 743 mmHg 80%

    Day after tomorrow, 3 June, Wednesday

    Time Temperature Precipitation Wind Pressure Humidity
    00:00 +18°C° 0 mm 2 mps 742 mmHg 78%
    01:00 +18°C° 0 mm 2 mps 742 mmHg 78%
    02:00 +18°C° 0 mm 2 mps 742 mmHg 78%
    03:00 +17°C° 0 mm 2 mps 742 mmHg 77%
    04:00 +18°C° 0 mm 2 mps 742 mmHg 76%
    05:00 +19°C° 0 mm 2 mps 741 mmHg 74%
    06:00 +21°C° 0 mm 1 mps 741 mmHg 72%
    07:00 +21°C° 0 mm 2 mps 741 mmHg 72%
    08:00 +23°C° 0 mm 2 mps 741 mmHg 71%
    09:00 +24°C° 0 mm 2 mps 741 mmHg 71%
    10:00 +23°C° 0.3 mm 2 mps 741 mmHg 75%
    11:00 +22°C° 0.3 mm 3 mps 741 mmHg 80%
    12:00 +21°C° 0.3 mm 3 mps 741 mmHg 85%
    13:00 +21°C° 0.4 mm 3 mps 741 mmHg 85%
    14:00 +21°C° 0.4 mm 3 mps 740 mmHg 85%
    15:00 +21°C° 0.4 mm 3 mps 740 mmHg 85%
    16:00 +21°C° 0.3 mm 4 mps 740 mmHg 86%
    17:00 +21°C° 0.3 mm 4 mps 740 mmHg 87%
    18:00 +21°C° 0.3 mm 4 mps 739 mmHg 88%
    19:00 +20°C° 0 mm 4 mps 740 mmHg 89%
    20:00 +20°C° 0 mm 4 mps 740 mmHg 89%
    21:00 +19°C° 0 mm 4 mps 740 mmHg 90%
    22:00 +19°C° 0 mm 4 mps 740 mmHg 89%
    23:00 +18°C° 0 mm 4 mps 739 mmHg 88%

    4 June, Thursday

    Time Temperature Precipitation Wind Pressure Humidity
    00:00 +18°C° 0 mm 4 mps 739 mmHg 87%
    01:00 +18°C° 0.2 mm 4 mps 739 mmHg 87%
    02:00 +18°C° 0.2 mm 4 mps 739 mmHg 88%
    03:00 +18°C° 0.2 mm 4 mps 738 mmHg 89%
    04:00 +19°C° 0.2 mm 3 mps 738 mmHg 88%
    05:00 +19°C° 0.2 mm 2 mps 738 mmHg 87%
    06:00 +20°C° 0.2 mm 1 mps 738 mmHg 85%
    07:00 +20°C° 0.1 mm 2 mps 738 mmHg 83%
    08:00 +21°C° 0.1 mm 2 mps 738 mmHg 81%
    09:00 +21°C° 0.1 mm 2 mps 738 mmHg 79%
    10:00 +23°C° 0.1 mm 2 mps 738 mmHg 77%
    11:00 +22°C° 0.1 mm 3 mps 737 mmHg 75%
    12:00 +22°C° 0.1 mm 3 mps 737 mmHg 73%
    13:00 +24°C° 0 mm 3 mps 737 mmHg 72%
    14:00 +24°C° 0 mm 3 mps 736 mmHg 72%
    15:00 +24°C° 0 mm 3 mps 736 mmHg 71%
    16:00 +22°C° 0 mm 3 mps 736 mmHg 77%
    17:00 +23°C° 0 mm 2 mps 736 mmHg 83%
    18:00 +21°C° 0 mm 2 mps 736 mmHg 89%
    19:00 +20°C° 0.1 mm 2 mps 736 mmHg 90%
    20:00 +20°C° 0.1 mm 2 mps 736 mmHg 92%
    21:00 +21°C° 0.1 mm 1 mps 736 mmHg 93%
    22:00 +21°C° 0.1 mm 1 mps 736 mmHg 93%
    23:00 +20°C° 0.1 mm 2 mps 736 mmHg 93%

    5 June, Friday

    Time Temperature Precipitation Wind Pressure Humidity
    00:00 +19°C° 0.1 mm 2 mps 735 mmHg 93%
    01:00 +19°C° 0.2 mm 3 mps 735 mmHg 93%
    02:00 +19°C° 0.2 mm 3 mps 735 mmHg 93%
    03:00 +19°C° 0.2 mm 4 mps 735 mmHg 93%
    04:00 +20°C° 0 mm 4 mps 735 mmHg 89%
    05:00 +20°C° 0 mm 4 mps 735 mmHg 86%
    06:00 +21°C° 0 mm 5 mps 735 mmHg 82%
    07:00 +22°C° 0 mm 5 mps 735 mmHg 72%
    08:00 +24°C° 0 mm 6 mps 735 mmHg 61%
    09:00 +27°C° 0 mm 7 mps 735 mmHg 51%
    10:00 +28°C° 0 mm 8 mps 735 mmHg 47%
    11:00 +29°C° 0 mm 9 mps 735 mmHg 44%
    12:00 +29°C° 0 mm 10 mps 735 mmHg 40%
    13:00 +29°C° 0 mm 10 mps 735 mmHg 41%
    14:00 +29°C° 0 mm 10 mps 735 mmHg 42%
    15:00 +29°C° 0 mm 10 mps 735 mmHg 43%
    16:00 +28°C° 0 mm 9 mps 735 mmHg 49%
    17:00 +27°C° 0 mm 9 mps 735 mmHg 54%
    18:00 +26°C° 0 mm 8 mps 735 mmHg 59%
    19:00 +23°C° 0 mm 8 mps 735 mmHg 62%
    20:00 +22°C° 0 mm 8 mps 736 mmHg 65%
    21:00 +20°C° 0 mm 7 mps 736 mmHg 68%
    22:00 +20°C° 0 mm 6 mps 736 mmHg 68%
    23:00 +19°C° 0 mm 5 mps 736 mmHg 68%

    6 June, Saturday

    Time Temperature Precipitation Wind Pressure Humidity
    00:00 +19°C° 0 mm 5 mps 736 mmHg 69%
    01:00 +19°C° 0 mm 4 mps 736 mmHg 69%
    02:00 +18°C° 0 mm 4 mps 736 mmHg 70%
    03:00 +18°C° 0 mm 4 mps 736 mmHg 70%
    04:00 +19°C° 0 mm 3 mps 736 mmHg 68%
    05:00 +20°C° 0 mm 3 mps 737 mmHg 65%
    06:00 +21°C° 0 mm 2 mps 737 mmHg 63%
    07:00 +23°C° 0 mm 2 mps 737 mmHg 60%
    08:00 +25°C° 0 mm 2 mps 737 mmHg 56%
    09:00 +26°C° 0 mm 3 mps 737 mmHg 52%
    10:00 +26°C° 0.1 mm 3 mps 737 mmHg 54%
    11:00 +27°C° 0.1 mm 3 mps 737 mmHg 55%
    12:00 +27°C° 0.1 mm 3 mps 737 mmHg 56%
    13:00 +27°C° 0 mm 3 mps 737 mmHg 56%
    14:00 +27°C° 0 mm 3 mps 737 mmHg 56%
    15:00 +27°C° 0 mm 4 mps 737 mmHg 56%
    16:00 +26°C° 0 mm 4 mps 737 mmHg 60%
    17:00 +26°C° 0 mm 3 mps 737 mmHg 65%
    18:00 +25°C° 0 mm 3 mps 737 mmHg 69%
    19:00 +22°C° 0 mm 3 mps 738 mmHg 73%
    20:00 +21°C° 0 mm 2 mps 738 mmHg 78%
    21:00 +20°C° 0 mm 2 mps 739 mmHg 82%
    22:00 +19°C° 0 mm 2 mps 739 mmHg 81%
    23:00 +19°C° 0 mm 2 mps 739 mmHg 80%
    Show more